Wind_Speed
26 27 27 28 28 29 29 29 30 29 28 28 28 27 26 26 24 22 19 18 19 21 22 22 22 22 22 22 22 22 22 21 21 21 22 24 26 27 28 29 28 26 26 25
26 27 30 33 32 33 34 33 33 31 29 27 27 26 26 24 23 21 19 20 21 21 22 22 23 24 25 25 25 25 26 25 25 24 24 24 24 24 24 26 26 24 24 25
31 32 37 38 34 34 35 33 31 28 25 24 25 24 22 20 19 19 18 21 23 24 24 23 24 25 26 27 28 27 28 27 27 27 26 26 26 25 24 23 23 24 24 24
36 35 39 34 31 29 26 24 21 20 20 21 20 18 16 14 14 16 17 20 23 24 25 24 25 26 27 28 28 28 28 27 28 30 28 27 27 26 25 23 23 24 25 25
30 28 25 21 17 14 14 14 14 15 17 16 14 13 11 10 13 16 19 22 24 25 25 25 26 27 27 26 26 26 27 27 28 29 30 30 30 28 26 24 23 22 23 24
12 7 2 3 4 6 7 8 10 13 13 11 12 14 13 12 17 19 23 26 26 25 24 24 24 25 24 25 25 26 28 29 29 29 30 31 32 30 27 25 25 24 23 23
11 8 6 3 4 5 5 6 9 9 10 12 15 18 19 20 21 23 26 28 26 24 24 23 23 23 24 26 28 29 30 31 32 32 31 31 30 29 27 26 25 25 25 25
11 9 8 8 7 7 9 10 9 10 12 14 17 19 20 21 22 25 26 26 24 23 22 22 23 25 27 28 30 30 32 33 34 34 33 30 27 26 26 26 24 23 23 24
8 6 9 10 9 9 10 10 11 12 13 15 17 19 19 20 21 23 23 23 22 21 21 22 24 27 29 29 28 29 31 32 33 33 31 27 25 24 23 24 23 22 21 20
12 12 17 15 13 13 12 12 12 13 14 15 16 17 18 19 20 20 20 20 20 20 20 22 25 27 26 25 25 26 25 24 24 24 24 23 23 22 21 21 21 21 20 20
17 19 21 19 16 14 14 14 12 12 13 12 13 16 17 18 18 18 18 18 18 20 22 23 23 24 23 23 22 21 20 18 15 13 16 18 20 20 19 18 18 19 20 19
21 21 24 23 17 13 14 13 11 11 11 11 14 16 17 16 16 16 16 17 18 20 22 23 23 22 20 20 19 18 15 11 6 2 8 13 15 16 16 15 15 17 18 19
24 26 27 24 18 14 14 12 10 10 9 11 15 16 16 15 15 15 15 16 18 20 22 23 23 21 18 17 17 16 12 8 6 4 6 8 10 12 13 13 14 15 16 17
28 29 28 24 20 15 14 12 9 9 10 12 15 15 15 15 14 14 15 16 17 19 20 21 20 18 15 15 15 14 12 9 7 7 7 7 8 9 9 10 11 12 14 15
27 26 25 24 19 15 13 11 8 8 9 11 13 14 14 14 13 14 14 14 15 17 19 19 19 18 15 13 13 12 11 10 9 9 9 8 7 6 5 6 7 10 12 14
26 27 28 24 19 16 14 11 8 8 9 11 11 12 13 13 12 12 12 12 13 15 17 19 19 18 16 13 11 10 9 9 9 8 8 7 5 4 1 2 5 7 10 11
28 27 25 23 19 17 16 12 9 8 9 10 10 10 12 13 12 11 11 12 13 14 16 18 19 18 17 14 11 8 6 6 6 5 4 4 3 2 2 2 4 5 6 7
25 22 21 20 18 19 17 13 10 9 9 8 8 9 10 11 10 10 11 12 12 13 14 15 16 17 18 17 13 9 6 4 4 3 3 3 3 3 3 4 4 4 4 5
23 20 18 17 18 21 18 14 11 10 9 8 6 6 7 8 9 10 12 13 12 12 12 12 13 15 16 17 16 13 10 7 6 5 4 4 3 4 5 5 5 5 5 5
24 21 18 17 20 21 18 14 12 10 9 7 5 4 5 5 7 10 13 14 14 13 12 11 11 12 13 15 16 15 12 10 8 6 5 5 4 5 5 5 5 5 4 4
28 25 20 19 23 22 19 15 12 11 10 8 5 2 2 3 5 9 12 15 16 15 13 11 10 11 11 12 14 14 14 12 11 9 7 6 6 6 6 6 6 6 6 6
32 27 22 22 25 23 19 16 13 13 12 9 6 3 1 1 3 7 11 15 17 16 13 11 11 11 11 11 12 13 13 13 12 11 10 9 8 7 7 7 7 7 7 7
36 30 26 26 26 24 20 17 15 14 13 11 8 7 5 3 3 6 10 14 16 16 14 12 11 11 11 11 12 12 12 12 12 12 12 11 11 10 10 9 9 8 8 8
39 32 29 29 28 24 20 18 17 16 15 13 11 10 9 8 8 9 11 13 15 15 13 12 11 11 10 10 11 11 12 12 13 13 13 12 12 12 12 11 10 9 9 10
37 32 31 32 29 25 22 19 18 17 16 15 14 14 13 13 12 11 11 12 12 11 11 11 10 11 11 11 11 12 12 13 13 14 14 14 15 15 15 14 14 13 12 13
36 33 33 33 31 27 23 20 18 17 17 17 16 15 15 14 13 12 11 9 8 7 8 9 10 11 12 12 13 13 13 13 14 15 16 16 17 17 17 16 16 16 15 16
34 33 33 34 32 28 24 21 19 17 16 16 15 13 12 11 10 9 7 5 4 3 4 6 8 9 11 12 13 13 14 14 14 14 15 16 16 17 17 17 17 17 18 18
Wind_Direction
252 250 251 256 256 258 263 269 276 279 279 283 284 283 282 283 283 280 277 277 287 298 303 305 304 301 299 298 296 294 290 285 282 279 273 269 269 269 267 263 257 256 255 253
254 257 258 259 259 259 263 269 273 275 278 281 280 280 278 277 276 279 279 281 286 290 292 294 294 293 291 289 287 286 284 282 280 278 275 274 275 274 276 269 261 255 254 253
267 268 267 266 267 265 264 266 268 270 274 275 276 278 278 275 278 288 293 294 295 295 293 289 288 287 286 284 283 281 278 275 273 272 271 269 270 273 275 271 261 250 248 247
272 270 269 274 270 265 261 259 258 262 267 271 276 277 276 279 287 297 302 300 297 296 294 292 290 291 289 287 284 282 278 274 271 269 266 265 265 266 266 266 259 250 246 245
270 268 271 270 261 246 235 233 242 253 261 266 268 270 274 285 292 299 306 309 307 302 299 296 295 295 294 292 289 285 282 277 272 269 266 262 260 260 260 259 256 254 251 249
236 223 194 242 211 194 201 222 241 252 252 257 269 279 285 288 290 299 306 309 308 304 302 300 300 299 298 296 294 290 285 281 276 270 266 262 258 255 253 251 248 248 249 250
165 147 136 196 169 179 192 221 237 244 252 271 284 291 298 297 299 303 307 309 309 307 306 305 303 301 301 301 298 294 290 285 279 272 265 261 257 252 248 246 243 244 245 247
166 170 200 207 210 220 227 246 262 266 274 282 288 295 298 299 299 302 307 309 310 310 309 307 306 306 305 303 299 296 292 287 279 272 264 257 252 249 245 242 241 242 244 245
174 198 233 230 240 250 258 269 278 282 286 289 292 296 300 299 301 305 310 312 313 313 312 311 311 310 308 305 302 299 296 288 279 270 260 250 242 241 240 238 237 237 239 240
208 221 249 252 254 259 264 273 285 291 295 297 298 301 304 306 309 313 316 319 320 321 320 318 315 313 312 311 310 310 306 298 285 267 251 240 233 233 234 233 230 230 232 234
235 243 253 256 253 255 264 278 290 295 300 302 305 309 312 314 317 322 325 328 330 330 328 326 325 326 326 325 324 323 320 315 297 262 234 224 222 224 225 228 228 227 229 231
237 244 250 252 252 252 262 276 285 294 302 307 312 316 320 321 324 328 331 334 336 335 334 336 339 339 338 338 340 340 340 344 343 214 197 202 208 212 216 221 224 226 229 234
230 239 244 248 250 251 259 269 278 292 300 308 314 320 324 324 325 330 334 337 338 337 340 344 346 346 347 350 355 360 5 17 42 95 147 175 190 197 204 211 217 224 231 237
232 237 242 247 250 250 254 261 272 289 296 303 312 320 323 324 326 333 338 340 341 344 348 350 351 353 354 359 5 12 23 41 64 89 113 138 160 178 192 205 218 231 239 245
240 239 242 245 248 246 246 252 265 281 289 297 310 322 326 327 332 340 346 349 352 357 360 0 360 1 3 5 11 19 32 51 68 83 94 103 116 134 164 201 227 241 248 253
228 232 238 242 244 239 238 244 256 271 281 292 311 325 329 330 335 344 350 354 358 2 5 6 7 8 9 9 11 19 34 52 65 76 85 91 98 106 129 255 265 264 261 260
220 228 238 243 242 232 229 234 246 260 271 286 308 322 328 332 337 345 348 348 350 354 360 5 10 14 15 15 14 16 25 39 49 56 63 66 65 57 26 338 307 284 271 267
221 231 241 243 238 223 222 228 237 249 260 276 302 318 328 336 346 355 355 352 349 349 354 2 11 18 21 23 24 25 28 29 31 35 41 46 44 37 24 12 0 343 317 299
218 227 238 239 221 213 218 226 234 242 249 263 288 313 331 344 359 7 8 5 1 358 358 4 14 22 27 31 34 38 43 48 53 55 57 56 44 29 18 11 0 350 336 325
213 221 230 223 209 208 215 223 229 232 237 246 267 303 333 347 5 17 20 16 13 11 9 12 18 23 28 33 39 43 46 48 48 45 43 38 28 16 7 3 0 354 337 322
212 217 221 213 206 207 214 219 221 222 225 228 238 273 335 14 35 37 31 23 19 17 17 20 22 23 26 32 38 42 45 47 47 41 32 22 10 359 352 349 347 344 337 327
212 215 215 208 205 207 212 214 216 217 217 215 215 213 205 84 42 29 24 22 21 20 22 23 24 26 29 32 36 40 43 46 46 42 35 26 16 6 359 356 353 348 342 335
215 214 210 205 203 205 209 212 216 215 212 209 207 209 217 240 306 344 358 7 12 18 23 24 26 29 33 35 36 37 38 39 38 35 31 28 25 20 12 5 358 351 344 339
216 212 206 201 200 203 208 213 216 214 213 214 218 223 234 252 278 306 328 345 358 11 21 27 29 31 34 36 37 37 36 35 34 32 31 30 29 27 21 15 6 355 345 338
214 210 203 198 198 202 207 211 214 216 218 225 232 240 248 257 268 286 307 327 345 4 19 26 29 31 34 37 39 39 38 36 34 33 34 35 34 32 28 24 20 15 7 359
210 206 200 197 198 202 206 209 213 217 225 233 240 248 253 257 262 274 291 310 330 354 15 24 28 31 35 39 41 40 37 35 33 33 33 33 33 32 30 29 27 24 21 16
203 201 199 197 198 201 204 207 210 216 224 231 238 243 247 249 253 261 271 283 302 336 9 21 26 30 35 41 44 44 42 40 38 35 33 32 31 29 28 27 25 23 21 19
Height
5787 5788 5789 5789 5790 5790 5791 5790 5791 5791 5791 5790 5788 5787 5786 5784 5782 5781 5780 5780 5779 5777 5774 5771 5769 5767 5765 5763 5762 5761 5760 5759 5759 5758 5758 5758 5758 5759 5759 5760 5762 5765 5767 5770
5779 5780 5780 5780 5781 5782 5783 5783 5784 5784 5784 5784 5782 5781 5779 5778 5776 5775 5775 5774 5774 5772 5769 5766 5763 5761 5759 5757 5756 5755 5754 5753 5753 5753 5753 5753 5753 5753 5753 5754 5755 5758 5760 5763
5772 5772 5770 5770 5774 5774 5774 5775 5776 5777 5778 5777 5776 5775 5774 5773 5772 5771 5770 5769 5766 5764 5762 5759 5757 5755 5752 5750 5749 5747 5746 5746 5746 5746 5747 5747 5748 5748 5748 5748 5749 5751 5753 5756
5762 5763 5760 5764 5762 5762 5765 5767 5769 5771 5772 5772 5771 5771 5770 5769 5768 5766 5765 5763 5760 5757 5754 5752 5749 5747 5745 5743 5741 5739 5737 5738 5737 5737 5739 5739 5740 5740 5741 5742 5743 5744 5746 5749
5753 5753 5754 5755 5755 5757 5759 5762 5765 5766 5767 5767 5767 5766 5766 5765 5764 5762 5760 5757 5754 5750 5747 5745 5742 5740 5737 5735 5732 5731 5729 5729 5729 5729 5729 5729 5731 5732 5733 5735 5736 5737 5739 5741
5748 5749 5751 5753 5754 5755 5758 5760 5762 5763 5764 5764 5763 5762 5762 5762 5760 5757 5754 5751 5747 5744 5741 5738 5735 5732 5730 5727 5725 5723 5721 5719 5719 5719 5719 5719 5720 5723 5725 5727 5729 5731 5733 5735
5745 5748 5750 5753 5754 5756 5759 5759 5760 5760 5760 5760 5759 5758 5757 5755 5753 5751 5748 5744 5741 5737 5734 5731 5728 5725 5723 5720 5717 5714 5712 5709 5707 5707 5707 5708 5710 5713 5716 5719 5721 5724 5727 5729
5746 5749 5753 5752 5754 5756 5757 5756 5757 5757 5757 5757 5755 5753 5752 5750 5748 5745 5742 5738 5734 5731 5728 5725 5722 5719 5715 5712 5707 5704 5700 5697 5695 5694 5695 5698 5701 5704 5707 5710 5714 5717 5719 5722
5747 5750 5750 5751 5752 5753 5754 5754 5754 5754 5753 5752 5751 5749 5747 5745 5743 5740 5736 5733 5729 5726 5723 5720 5716 5712 5707 5703 5698 5694 5689 5685 5682 5681 5683 5687 5691 5695 5699 5703 5706 5710 5713 5715
5744 5746 5747 5748 5749 5750 5751 5751 5751 5750 5749 5748 5746 5744 5742 5740 5737 5734 5731 5728 5725 5721 5718 5715 5710 5705 5700 5695 5691 5685 5680 5674 5670 5669 5672 5678 5683 5688 5692 5696 5700 5703 5707 5710
5742 5744 5744 5745 5746 5747 5747 5747 5747 5747 5746 5744 5743 5741 5738 5735 5733 5730 5727 5724 5721 5718 5714 5711 5706 5700 5695 5690 5685 5679 5673 5668 5664 5663 5666 5671 5677 5682 5687 5691 5695 5698 5702 5705
5738 5741 5741 5741 5742 5744 5744 5745 5745 5744 5743 5741 5740 5737 5735 5732 5729 5727 5724 5721 5718 5715 5712 5707 5702 5696 5691 5687 5681 5676 5671 5667 5663 5662 5664 5669 5674 5679 5683 5687 5691 5695 5698 5702
5732 5734 5734 5737 5739 5740 5741 5742 5742 5741 5740 5739 5737 5734 5732 5729 5727 5725 5722 5720 5717 5714 5709 5704 5699 5694 5690 5686 5681 5676 5672 5668 5666 5665 5667 5670 5673 5677 5681 5685 5688 5692 5695 5698
5723 5727 5729 5733 5735 5737 5738 5739 5739 5738 5737 5736 5734 5732 5730 5728 5725 5723 5721 5718 5715 5712 5708 5703 5698 5694 5690 5686 5682 5678 5674 5671 5669 5669 5670 5672 5674 5677 5680 5684 5687 5689 5692 5694
5718 5721 5724 5727 5731 5733 5735 5736 5736 5736 5735 5734 5732 5731 5729 5726 5724 5722 5720 5717 5715 5711 5707 5703 5698 5694 5689 5686 5683 5680 5677 5675 5674 5673 5674 5675 5677 5679 5681 5684 5686 5688 5689 5690
5711 5714 5718 5722 5726 5729 5731 5732 5733 5733 5732 5731 5730 5729 5727 5725 5723 5721 5719 5717 5715 5711 5708 5704 5699 5694 5690 5687 5684 5682 5680 5679 5678 5677 5678 5678 5680 5681 5683 5684 5685 5685 5686 5687
5703 5707 5712 5717 5721 5725 5727 5729 5730 5730 5730 5729 5729 5728 5726 5725 5723 5721 5719 5717 5714 5711 5708 5704 5700 5695 5691 5688 5685 5683 5682 5681 5681 5680 5681 5681 5682 5682 5683 5683 5683 5683 5684 5684
5697 5702 5707 5711 5716 5720 5723 5725 5727 5727 5727 5727 5727 5727 5726 5724 5723 5721 5719 5717 5714 5711 5708 5705 5701 5697 5694 5690 5687 5685 5684 5683 5683 5683 5682 5683 5683 5683 5684 5683 5683 5682 5682 5682
5692 5697 5702 5706 5710 5715 5719 5722 5723 5724 5725 5726 5726 5726 5725 5724 5723 5721 5719 5717 5714 5711 5709 5706 5703 5700 5697 5693 5690 5688 5686 5685 5685 5684 5684 5684 5684 5684 5684 5683 5683 5682 5681 5681
5686 5691 5696 5701 5706 5710 5715 5718 5720 5721 5723 5724 5724 5725 5724 5724 5724 5722 5720 5718 5715 5712 5709 5706 5704 5702 5699 5697 5694 5692 5690 5689 5688 5687 5687 5686 5686 5685 5685 5684 5683 5682 5681 5680
5680 5686 5691 5696 5702 5707 5711 5714 5716 5718 5720 5722 5723 5724 5724 5724 5724 5722 5721 5718 5716 5713 5710 5708 5706 5704 5702 5699 5697 5695 5693 5692 5690 5689 5689 5688 5687 5686 5685 5684 5683 5681 5680 5679
5674 5680 5686 5692 5697 5703 5707 5710 5713 5715 5717 5719 5721 5722 5723 5723 5723 5722 5721 5719 5717 5714 5711 5709 5707 5706 5704 5702 5700 5698 5696 5694 5693 5691 5690 5689 5688 5686 5685 5684 5683 5681 5680 5679
5668 5674 5681 5687 5693 5698 5703 5707 5710 5712 5715 5717 5719 5721 5722 5722 5723 5722 5721 5720 5717 5715 5713 5711 5709 5708 5706 5704 5702 5701 5699 5697 5695 5694 5692 5690 5689 5687 5686 5684 5683 5681 5680 5679
5662 5669 5676 5683 5689 5694 5699 5703 5706 5709 5712 5715 5717 5719 5720 5720 5721 5721 5720 5719 5718 5716 5715 5713 5711 5710 5708 5706 5705 5703 5702 5700 5698 5696 5694 5692 5690 5689 5687 5685 5684 5682 5680 5679
5658 5665 5672 5679 5685 5690 5695 5699 5703 5706 5709 5712 5714 5716 5717 5718 5719 5719 5719 5718 5718 5717 5716 5714 5713 5711 5710 5708 5707 5706 5704 5702 5700 5698 5696 5694 5692 5690 5689 5687 5685 5683 5681 5679
5653 5661 5668 5675 5681 5686 5691 5695 5699 5702 5705 5708 5710 5712 5713 5714 5716 5716 5717 5717 5717 5716 5716 5715 5714 5713 5711 5710 5709 5707 5706 5704 5702 5700 5698 5696 5694 5692 5690 5688 5686 5684 5681 5679
5648 5656 5663 5670 5676 5681 5687 5691 5695 5699 5702 5704 5707 5708 5709 5711 5712 5714 5715 5715 5715 5715 5716 5716 5715 5714 5712 5711 5710 5709 5707 5705 5704 5702 5701 5699 5697 5694 5692 5689 5687 5685 5683 5680